Location: Braunsdorf
(50.7357°N, 11.9136°E)
Time: 18:24:30
(UTC+00:00)

NOAA 6 - Pass Details

Date: 17 February 2020
Orbit: 772 x 788 km, 98.7° (Epoch: 27 March)

Event Time Altitude Azimuth Distance (km) Brightness Sun altitude
Rises 05:33:41 0° 12° (NNE) 3,293 7.3 -8.2°
Reaches altitude 10° 05:36:03 10° 9° (N) 2,358 6.5 -7.9°
Maximum altitude 05:41:09 59° 291° (WNW) 906 4.1 -7.1°
Drops below altitude 10° 05:46:12 10° 213° (SSW) 2,333 6.3 -6.3°
Sets 05:48:32 0° 210° (SSW) 3,254 7.1 -5.9°
